DW4915 Mazarete ES current weather conditions

sailwx.info

Wind from 056 at 7 knots gusting 14

Air temperature 23.9° C
Dewpoint 13.7° C

Last reported at 2014-Aug-29 17:41 UTC.
Time now 2014-Aug-29 18:25 UTC

Location: N 40°58' W 002°11'.
View on Google Maps.

See reports from other nearby stations

  
Tides and Currents Weather Stations Pressure Air Temp Water Temp Dewpoint Dewpoint Depression Visibility Wind Speed Wind Dir Waves Ship Positions
date/time (UTC)wind fromknots sea level pressurealtimeterstation pressurevisibilityair tempwater tempwave heightnotes
2014-Aug-29 17:41 056 7 gusting 14 23.9
2014-Aug-29 17:36 076 7 gusting 13 23.9
2014-Aug-29 17:31 073 5 gusting 13 24.4
2014-Aug-29 17:26 073 6 gusting 13 24.4
2014-Aug-29 17:21 083 8 gusting 13 25.0
2014-Aug-29 17:16 024 8 gusting 14 25.0
2014-Aug-29 17:11 064 6 gusting 14 25.0
2014-Aug-29 17:06 077 6 gusting 13 25.6
2014-Aug-29 17:01 080 7 gusting 12 25.6
2014-Aug-29 16:56 075 6 gusting 11 25.6
2014-Aug-29 16:51 023 6 gusting 13 25.6
2014-Aug-29 16:46 065 7 gusting 13 25.6
2014-Aug-29 16:41 031 5 gusting 13 25.6
2014-Aug-29 16:36 058 6 gusting 16 25.6
2014-Aug-29 16:31 071 12 gusting 16 26.1
2014-Aug-29 16:26 071 8 gusting 13 26.1
2014-Aug-29 16:21 083 8 gusting 13 26.1
2014-Aug-29 16:16 027 6 gusting 14 26.1
2014-Aug-29 16:11 087 9 gusting 15 26.1
2014-Aug-29 16:06 083 9 gusting 14 26.7
2014-Aug-29 16:01 084 6 gusting 13 26.7
2014-Aug-29 15:56 067 7 gusting 14 26.7
2014-Aug-29 15:51 088 5 gusting 14 26.7
2014-Aug-29 15:46 015 4 gusting 13 26.7
2014-Aug-29 15:41 053 7 gusting 13 26.7
2014-Aug-29 15:36 079 6 gusting 13 26.7
2014-Aug-29 15:31 030 6 gusting 14 26.7
2014-Aug-29 15:26 085 6 gusting 13 27.2
2014-Aug-29 15:21 094 5 gusting 13 26.7
2014-Aug-29 15:16 071 8 gusting 13 26.1
2014-Aug-29 15:11 083 6 gusting 13 26.1
2014-Aug-29 15:06 064 6 gusting 13 26.7
2014-Aug-29 15:01 031 5 gusting 11 26.7
2014-Aug-29 14:56 091 6 gusting 13 26.1
2014-Aug-29 14:51 069 6 gusting 14 26.7
2014-Aug-29 14:46 081 9 gusting 14 27.2
2014-Aug-29 14:41 083 9 gusting 13 26.7
2014-Aug-29 14:36 053 5 gusting 13 26.7
2014-Aug-29 14:31 082 8 gusting 13 26.7
2014-Aug-29 14:26 076 8 gusting 15 26.7
2014-Aug-29 14:21 060 8 gusting 16 26.7
2014-Aug-29 14:16 029 9 gusting 16 26.7
2014-Aug-29 14:11 024 6 gusting 13 26.7
2014-Aug-29 14:06 055 6 gusting 11 26.1
2014-Aug-29 14:01 026 6 gusting 12 26.1
2014-Aug-29 13:56 078 6 gusting 15 26.7
2014-Aug-29 13:51 067 10 gusting 15 27.8
2014-Aug-29 13:46 090 6 gusting 13 27.8
2014-Aug-29 13:41 073 4 gusting 11 26.7
2014-Aug-29 13:36 081 5 gusting 11 26.7
2014-Aug-29 13:31 017 3 gusting 12 27.2
2014-Aug-29 13:26 083 9 gusting 13 27.8
2014-Aug-29 13:21 090 6 gusting 13 27.8
2014-Aug-29 13:16 075 5 gusting 12 27.8
2014-Aug-29 13:11 079 6 gusting 12 27.8
2014-Aug-29 13:06 069 6 gusting 12 27.8
2014-Aug-29 13:01 042 4 gusting 13 27.8
2014-Aug-29 12:56 095 9 gusting 13 27.2
2014-Aug-29 12:51 102 7 gusting 12 27.2
2014-Aug-29 12:46 053 6 gusting 10 27.2
2014-Aug-29 12:41 071 2 gusting 10 26.7
2014-Aug-29 12:36 091 7 gusting 11 26.7
2014-Aug-29 12:31 097 5 gusting 10 27.2
2014-Aug-29 12:26 083 4 gusting 8 26.7
2014-Aug-29 12:21 054 1 gusting 9 26.1
2014-Aug-29 12:16 075 6 gusting 9 26.7
2014-Aug-29 12:11 077 4 gusting 9 26.1
2014-Aug-29 12:06 085 5 gusting 9 26.1
2014-Aug-29 12:01 058 4 gusting 10 26.1
2014-Aug-29 11:56 046 2 gusting 13 25.6
2014-Aug-29 11:51 032 3 gusting 13 25.6
2014-Aug-29 11:46 068 5 gusting 12 25.6
2014-Aug-29 11:41 055 4 gusting 13 25.6
2014-Aug-29 11:36 076 7 gusting 13 25.6
2014-Aug-29 11:31 102 6 gusting 13 25.6
2014-Aug-29 11:26 079 8 gusting 13 25.6
2014-Aug-29 11:21 065 0 gusting 10 25.6
2014-Aug-29 11:16 093 6 gusting 13 25.6
2014-Aug-29 11:11 090 7 gusting 13 25.6
2014-Aug-29 11:06 094 5 gusting 8 25.6
2014-Aug-29 11:01 098 4 gusting 7 25.0
2014-Aug-29 10:56 085 2 gusting 9 25.0
2014-Aug-29 10:51 088 3 gusting 9 25.0
2014-Aug-29 10:46 096 5 gusting 9 25.0
2014-Aug-29 10:41 089 6 gusting 9 24.4
2014-Aug-29 10:36 092 6 gusting 9 24.4
2014-Aug-29 10:31 102 6 gusting 9 24.4
2014-Aug-29 10:26 108 6 gusting 12 23.9
2014-Aug-29 10:21 079 5 gusting 9 23.9
2014-Aug-29 10:16 081 3 gusting 8 23.9
2014-Aug-29 10:11 091 6 gusting 8 23.9
2014-Aug-29 10:06 088 5 gusting 10 23.3
2014-Aug-29 10:01 091 5 gusting 9 22.8
2014-Aug-29 09:56 085 6 gusting 9 22.2
2014-Aug-29 09:46 089 5 gusting 9 21.7
2014-Aug-29 09:41 092 6 gusting 9 21.7
2014-Aug-29 09:36 090 6 gusting 9 21.7
2014-Aug-29 09:31 075 6 gusting 11 22.2
2014-Aug-29 09:26 079 6 gusting 9 22.8
2014-Aug-29 09:21 078 6 gusting 8 22.8
2014-Aug-29 09:16 065 5 gusting 9 21.7
2014-Aug-29 09:11 087 5 gusting 10 21.1
2014-Aug-29 09:06 075 6 gusting 10 21.1
2014-Aug-29 09:01 081 5 gusting 9 21.1
2014-Aug-29 08:56 080 5 gusting 9 21.1
2014-Aug-29 08:51 081 5 gusting 9 21.1
2014-Aug-29 08:46 067 2 gusting 8 20.6
2014-Aug-29 08:41 071 5 gusting 8 20.0
2014-Aug-29 08:36 067 6 gusting 8 20.0
2014-Aug-29 08:31 050 4 gusting 8 20.0
2014-Aug-29 08:26 046 5 gusting 9 20.0
2014-Aug-29 08:21 045 5 gusting 8 19.4
2014-Aug-29 08:16 056 5 gusting 8 18.9
2014-Aug-29 08:11 065 3 gusting 11 18.9
2014-Aug-29 08:06 069 4 gusting 11 18.9
2014-Aug-29 08:01 071 3 gusting 9 18.9
2014-Aug-29 07:56 088 1 gusting 6 18.9
2014-Aug-29 07:51 088 1 gusting 8 18.3
2014-Aug-29 07:46 090 5 gusting 8 18.3
2014-Aug-29 07:41 095 1 gusting 8 18.3
2014-Aug-29 07:36 098 2 gusting 8 18.3
2014-Aug-29 07:31 103 0 gusting 4 17.8
2014-Aug-29 07:26 102 17.8
2014-Aug-29 07:21 104 17.8
2014-Aug-29 07:16 106 17.8
2014-Aug-29 07:11 103 17.8
2014-Aug-29 07:06 103 17.2
2014-Aug-29 07:01 102 17.2
2014-Aug-29 06:56 105 17.2
2014-Aug-29 06:51 103 17.2
2014-Aug-29 06:46 102 16.7
2014-Aug-29 06:41 105 16.7
2014-Aug-29 06:36 104 16.7
2014-Aug-29 06:31 103 16.7
2014-Aug-29 06:26 102 16.1
2014-Aug-29 06:21 101 16.1
2014-Aug-29 06:11 104 16.1
2014-Aug-29 06:06 102 0 gusting 2 16.1
2014-Aug-29 06:01 104 16.1
2014-Aug-29 05:56 102 16.1
2014-Aug-29 05:51 103 16.1
2014-Aug-29 05:46 105 1 gusting 5 16.1
2014-Aug-29 05:41 103 2 gusting 5 16.1
2014-Aug-29 05:36 103 16.7
2014-Aug-29 05:31 103 16.7
2014-Aug-29 05:26 104 16.7
2014-Aug-29 05:21 104 4 gusting 6 16.7
2014-Aug-29 05:16 113 4 gusting 6 16.7
2014-Aug-29 05:11 119 0 gusting 5 16.7
2014-Aug-29 05:06 119 1 gusting 5 16.7
2014-Aug-29 05:01 071 16.7
2014-Aug-29 04:56 071 16.7
2014-Aug-29 04:51 070 0 gusting 5 16.7
2014-Aug-29 04:46 076 16.7
2014-Aug-29 04:41 070 16.7
2014-Aug-29 04:36 071 4 gusting 8 16.7
2014-Aug-29 04:26 053 3 gusting 14 16.7
2014-Aug-29 04:21 075 8 gusting 17 16.7
2014-Aug-29 04:16 066 7 gusting 13 16.7
2014-Aug-29 04:11 083 7 gusting 12 16.7
2014-Aug-29 04:06 069 6 gusting 12 16.7
2014-Aug-29 04:01 069 6 gusting 10 16.7
2014-Aug-29 03:56 061 1 gusting 6 17.2
2014-Aug-29 03:51 063 3 gusting 6 17.2
2014-Aug-29 03:46 061 1 gusting 4 17.2
2014-Aug-29 03:41 065 17.2
2014-Aug-29 03:36 061 17.2
2014-Aug-29 03:31 063 0 gusting 11 17.2
2014-Aug-29 03:26 060 1 gusting 11 17.2
2014-Aug-29 03:21 058 4 gusting 11 17.2
2014-Aug-29 03:16 076 6 gusting 13 17.2
2014-Aug-29 03:11 071 6 gusting 10 17.2
2014-Aug-29 03:06 070 5 gusting 10 17.2
2014-Aug-29 03:01 081 7 gusting 10 17.2
2014-Aug-29 02:56 046 2 gusting 11 17.2
2014-Aug-29 02:51 067 4 gusting 11 17.8
2014-Aug-29 02:46 216 5 gusting 9 17.2
2014-Aug-29 02:41 071 6 gusting 9 17.2
2014-Aug-29 02:36 057 5 gusting 7 16.7
2014-Aug-29 02:26 259 3 gusting 4 15.6
2014-Aug-29 02:21 260 15.6
2014-Aug-29 02:16 260 0 gusting 3 15.0
2014-Aug-29 02:11 260 14.4
2014-Aug-29 02:06 260 15.0
2014-Aug-29 02:01 259 15.0
2014-Aug-29 01:56 260 15.0
2014-Aug-29 01:51 260 15.0
2014-Aug-29 01:46 260 15.0
2014-Aug-29 01:41 259 14.4
2014-Aug-29 01:36 258 15.0
2014-Aug-29 01:31 258 14.4
2014-Aug-29 01:26 260 13.9
2014-Aug-29 01:21 261 13.3
2014-Aug-29 01:16 260 13.3
2014-Aug-29 01:11 260 12.8
2014-Aug-29 01:06 259 2 gusting 4 12.2
2014-Aug-29 01:01 258 11.1
2014-Aug-29 00:56 260 1 gusting 5 10.6
2014-Aug-29 00:51 260 10.6
2014-Aug-29 00:46 260 10.6
2014-Aug-29 00:41 260 10.6
2014-Aug-29 00:36 260 10.6
2014-Aug-29 00:31 260 11.1
2014-Aug-29 00:26 260 11.1
2014-Aug-29 00:21 260 11.1
2014-Aug-29 00:16 258 11.1
2014-Aug-29 00:11 260 11.1
2014-Aug-29 00:06 260 11.1
2014-Aug-29 00:01 260 11.1
2014-Aug-28 23:56 260 11.1
2014-Aug-28 23:51 260 11.1
2014-Aug-28 23:41 260 11.1
2014-Aug-28 23:36 260 11.1
2014-Aug-28 23:31 260 11.1
2014-Aug-28 23:26 260 11.1
2014-Aug-28 23:21 260 11.1
2014-Aug-28 23:16 260 11.1
2014-Aug-28 23:11 260 11.1
2014-Aug-28 23:06 260 11.1
2014-Aug-28 23:01 259 11.1
2014-Aug-28 22:56 260 11.1
2014-Aug-28 22:51 260 11.1
2014-Aug-28 22:46 259 11.7
2014-Aug-28 22:41 260 11.7
2014-Aug-28 22:36 259 11.7
2014-Aug-28 22:31 260 11.7
2014-Aug-28 22:26 260 11.7
2014-Aug-28 22:21 260 12.2
2014-Aug-28 22:16 259 12.2
2014-Aug-28 22:11 260 12.2
2014-Aug-28 22:06 260 12.2
2014-Aug-28 22:01 260 12.8
2014-Aug-28 21:56 260 12.8
2014-Aug-28 21:51 260 12.8
2014-Aug-28 21:46 258 12.8
2014-Aug-28 21:41 260 13.3
2014-Aug-28 21:36 259 13.3
2014-Aug-28 21:31 260 13.3
2014-Aug-28 21:26 260 13.3
2014-Aug-28 21:21 259 13.9
2014-Aug-28 21:16 260 13.9
2014-Aug-28 21:11 260 13.9
2014-Aug-28 21:06 260 14.4
2014-Aug-28 21:01 260 14.4
2014-Aug-28 20:56 259 14.4
2014-Aug-28 20:51 260 14.4
2014-Aug-28 20:46 258 15.0
2014-Aug-28 20:41 260 15.0
2014-Aug-28 20:36 260 15.0
2014-Aug-28 20:31 260 15.6
2014-Aug-28 20:21 260 16.1
2014-Aug-28 20:16 259 16.1
2014-Aug-28 20:11 258 16.7
2014-Aug-28 20:06 260 16.7
2014-Aug-28 19:56 260 17.2
2014-Aug-28 19:51 259 17.8
2014-Aug-28 19:46 260 18.3
2014-Aug-28 19:41 259 18.3
2014-Aug-28 19:36 260 18.9
2014-Aug-28 19:31 260 19.4
2014-Aug-28 19:26 259 20.0
2014-Aug-28 19:21 260 20.0
2014-Aug-28 19:16 259 21.1
2014-Aug-28 19:06 260 22.2
2014-Aug-28 19:01 259 22.8
2014-Aug-28 18:56 260 23.3
2014-Aug-28 18:51 259 24.4
2014-Aug-28 18:46 258 25.0
2014-Aug-28 18:41 260 25.6
2014-Aug-28 18:36 259 26.1
2014-Aug-28 18:31 258 0 gusting 5 26.1
2014-Aug-28 18:26 260 1 gusting 5 26.7
2014-Aug-28 18:21 259 1 gusting 8 26.7
2014-Aug-28 18:16 249 3 gusting 9 27.2
2014-Aug-28 18:11 269 5 gusting 13 27.2
2014-Aug-28 18:06 260 8 gusting 13 27.8
2014-Aug-28 18:01 247 6 gusting 12 27.8
2014-Aug-28 17:56 259 6 gusting 12 27.8
2014-Aug-28 17:51 230 6 gusting 10 28.3
2014-Aug-28 17:46 259 5 gusting 14 28.3
2014-Aug-28 17:41 237 7 gusting 14 28.3
2014-Aug-28 17:31 258 6 gusting 11 28.9
2014-Aug-28 17:26 281 5 gusting 13 28.9
2014-Aug-28 17:21 256 6 gusting 13 29.4
2014-Aug-28 17:16 258 6 gusting 15 29.4
2014-Aug-28 17:11 248 9 gusting 15 29.4
2014-Aug-28 17:06 246 8 gusting 14 29.4
2014-Aug-28 17:01 241 8 gusting 14 29.4
2014-Aug-28 16:56 254 6 gusting 13 30.0
2014-Aug-28 16:51 262 5 gusting 10 30.0
2014-Aug-28 16:46 252 7 gusting 12 30.0
2014-Aug-28 16:41 265 7 gusting 13 30.6
2014-Aug-28 16:36 227 6 gusting 13 30.6
2014-Aug-28 16:31 269 6 gusting 14 30.6
2014-Aug-28 16:26 254 6 gusting 13 30.6
2014-Aug-28 16:21 256 6 gusting 13 30.6
2014-Aug-28 16:16 236 8 gusting 13 30.6
2014-Aug-28 16:11 185 6 gusting 11 30.6
2014-Aug-28 16:06 256 4 gusting 15 30.0
2014-Aug-28 16:01 238 6 gusting 15 30.0
2014-Aug-28 15:56 246 2 gusting 14 30.0
2014-Aug-28 15:51 279 8 gusting 15 30.0
2014-Aug-28 15:46 274 8 gusting 15 30.0
2014-Aug-28 15:41 270 6 gusting 13 30.0
2014-Aug-28 15:36 287 7 gusting 15 30.0
2014-Aug-28 15:31 283 8 gusting 16 30.0
2014-Aug-28 15:26 225 7 gusting 17 30.0
2014-Aug-28 15:21 240 8 gusting 17 30.6
2014-Aug-28 15:16 206 8 gusting 13 30.6
2014-Aug-28 15:11 196 8 gusting 14 30.0
2014-Aug-28 15:06 247 7 gusting 15 30.0
2014-Aug-28 15:01 242 9 gusting 16 30.0
2014-Aug-28 14:56 231 8 gusting 16 30.6
2014-Aug-28 14:51 252 7 gusting 11 30.6
2014-Aug-28 14:46 200 4 gusting 11 30.0
2014-Aug-28 14:41 235 6 gusting 14 30.0
2014-Aug-28 14:36 244 11 gusting 16 30.0
2014-Aug-28 14:31 247 10 gusting 16 30.0
2014-Aug-28 14:26 216 6 gusting 15 30.6
2014-Aug-28 14:21 235 2 gusting 13 30.0
2014-Aug-28 14:16 283 7 gusting 15 30.0
2014-Aug-28 14:11 252 9 gusting 15 30.0
2014-Aug-28 14:06 167 7 gusting 14 30.0
2014-Aug-28 14:01 231 8 gusting 14 30.0
2014-Aug-28 13:56 249 8 gusting 15 30.0
2014-Aug-28 13:51 260 8 gusting 16 30.0
2014-Aug-28 13:46 275 9 gusting 17 30.0
2014-Aug-28 13:41 269 3 gusting 14 30.0
2014-Aug-28 13:36 243 7 gusting 16 30.0
2014-Aug-28 13:31 246 8 gusting 16 29.4
2014-Aug-28 13:26 148 6 gusting 15 29.4
2014-Aug-28 13:21 194 6 gusting 15 30.0
2014-Aug-28 13:16 203 8 gusting 15 29.4
2014-Aug-28 13:11 202 7 gusting 13 30.0
2014-Aug-28 13:06 246 7 gusting 13 29.4
2014-Aug-28 13:01 221 6 gusting 13 29.4
2014-Aug-28 12:56 271 3 gusting 15 29.4
2014-Aug-28 12:51 277 8 gusting 15 29.4
2014-Aug-28 12:46 284 6 gusting 15 29.4
2014-Aug-28 12:41 294 7 gusting 15 28.9
2014-Aug-28 12:36 255 9 gusting 19 29.4
2014-Aug-28 12:31 251 13 gusting 19 29.4
2014-Aug-28 12:26 240 7 gusting 15 29.4
2014-Aug-28 12:21 281 8 gusting 15 29.4
2014-Aug-28 12:16 252 11 gusting 19 29.4
2014-Aug-28 12:11 346 9 gusting 13 29.4
2014-Aug-28 12:06 286 7 gusting 14 28.9
2014-Aug-28 12:01 268 8 gusting 17 29.4
2014-Aug-28 11:56 259 7 gusting 17 29.4
2014-Aug-28 11:51 211 10 gusting 19 28.9
2014-Aug-28 11:46 240 12 gusting 19 28.9
2014-Aug-28 11:41 258 8 gusting 15 28.9
2014-Aug-28 11:36 286 7 gusting 16 28.9
2014-Aug-28 11:31 279 8 gusting 16 28.9
2014-Aug-28 11:26 256 10 gusting 22 28.9
2014-Aug-28 11:21 265 10 gusting 22 28.9
2014-Aug-28 11:16 301 6 gusting 19 28.3
2014-Aug-28 11:11 211 8 gusting 18 27.8
2014-Aug-28 11:06 225 9 gusting 17 27.8
2014-Aug-28 11:01 246 12 gusting 19 27.8
2014-Aug-28 10:56 221 12 gusting 19 28.3
2014-Aug-28 10:51 233 8 gusting 15 28.3
2014-Aug-28 10:46 245 8 gusting 15 27.8
2014-Aug-28 10:41 250 5 gusting 13 27.8
2014-Aug-28 10:36 225 6 gusting 14 27.8
2014-Aug-28 10:31 260 6 gusting 13 27.8
2014-Aug-28 10:26 253 6 gusting 10 27.2
2014-Aug-28 10:21 238 6 gusting 12 27.2
2014-Aug-28 10:16 235 6 gusting 12 27.2
2014-Aug-28 10:11 221 6 gusting 12 27.2
2014-Aug-28 10:06 240 7 gusting 12 27.2
2014-Aug-28 10:01 246 6 gusting 10 27.2
2014-Aug-28 09:56 244 5 gusting 9 26.7
2014-Aug-28 09:51 253 3 gusting 9 26.7
2014-Aug-28 09:46 253 4 gusting 9 26.1
2014-Aug-28 09:41 255 6 gusting 7 26.1
2014-Aug-28 09:36 245 3 gusting 6 25.6
2014-Aug-28 09:31 248 5 gusting 8 25.6
2014-Aug-28 09:26 246 4 gusting 8 25.6
2014-Aug-28 09:21 262 5 gusting 7 25.6
2014-Aug-28 09:16 277 3 gusting 7 25.0
2014-Aug-28 09:11 279 3 gusting 6 24.4
2014-Aug-28 09:06 280 3 gusting 6 24.4
2014-Aug-28 09:01 280 2 gusting 6 24.4
2014-Aug-28 08:51 278 2 gusting 7 23.9
2014-Aug-28 08:46 281 3 gusting 7 23.9
2014-Aug-28 08:41 282 3 gusting 6 23.3
2014-Aug-28 08:36 281 4 gusting 7 23.3
2014-Aug-28 08:31 333 4 gusting 7 23.3
2014-Aug-28 08:26 333 2 gusting 6 23.3
2014-Aug-28 08:21 333 2 gusting 6 23.3
2014-Aug-28 08:16 333 2 gusting 6 23.3
2014-Aug-28 08:11 334 1 gusting 6 22.8
2014-Aug-28 08:06 332 0 gusting 3 22.8
2014-Aug-28 08:01 333 22.2
2014-Aug-28 07:56 333 21.7
2014-Aug-28 07:51 334 21.1
2014-Aug-28 07:41 334 20.6
2014-Aug-28 07:36 332 20.6
2014-Aug-28 07:31 329 20.0
2014-Aug-28 07:21 333 18.9
2014-Aug-28 07:16 334 18.3
2014-Aug-28 07:11 332 17.8
2014-Aug-28 07:06 333 16.7
2014-Aug-28 06:56 333 14.4
2014-Aug-28 06:51 335 13.9
2014-Aug-28 06:46 332 13.3
2014-Aug-28 06:41 331 12.8
2014-Aug-28 06:36 333 11.7
2014-Aug-28 06:31 333 11.1
2014-Aug-28 06:26 333 10.6
2014-Aug-28 06:21 333 10.0
2014-Aug-28 06:16 333 10.0
2014-Aug-28 06:06 333 9.4
2014-Aug-28 06:01 333 9.4
2014-Aug-28 05:56 333 9.4
2014-Aug-28 05:51 332 9.4
2014-Aug-28 05:46 333 9.4
2014-Aug-28 04:51 333 9.4
2014-Aug-28 04:41 333 9.4
2014-Aug-28 04:36 333 9.4
2014-Aug-28 04:31 333 10.0
2014-Aug-28 04:26 333 10.0
2014-Aug-28 04:21 333 10.0
2014-Aug-28 04:16 332 10.0
2014-Aug-28 04:11 333 10.0
2014-Aug-28 04:06 333 10.0
2014-Aug-28 04:01 333 10.0
2014-Aug-28 03:51 333 10.0
2014-Aug-28 03:46 333 10.0
2014-Aug-28 03:41 335 10.0
2014-Aug-28 03:36 333 10.0
2014-Aug-28 03:31 335 10.0
2014-Aug-28 03:26 334 10.0
2014-Aug-28 03:21 331 10.0
2014-Aug-28 03:16 334 10.0
2014-Aug-28 03:11 333 10.0
2014-Aug-28 03:06 332 10.0
2014-Aug-28 03:01 333 10.0
2014-Aug-28 02:56 333 10.6
2014-Aug-28 02:51 333 10.6
2014-Aug-28 02:46 335 10.6
2014-Aug-28 02:41 333 10.6
2014-Aug-28 02:36 333 10.6
2014-Aug-28 02:31 333 10.6
2014-Aug-28 02:26 334 10.6
2014-Aug-28 02:21 333 10.6
2014-Aug-28 02:16 333 10.6
2014-Aug-28 02:06 331 10.6
2014-Aug-28 02:01 333 10.6
2014-Aug-28 01:56 333 10.6
2014-Aug-28 01:51 333 10.6
2014-Aug-28 01:41 333 11.1
2014-Aug-28 01:36 333 11.1
2014-Aug-28 01:31 333 11.1
2014-Aug-28 01:26 333 11.1
2014-Aug-28 01:21 333 11.1
2014-Aug-28 01:16 333 11.1
2014-Aug-28 01:11 333 11.1
2014-Aug-28 01:06 334 11.1
2014-Aug-28 01:01 333 11.1
2014-Aug-28 00:56 334 11.1
2014-Aug-28 00:51 332 11.7
2014-Aug-28 00:46 333 11.7
2014-Aug-28 00:41 333 11.7
2014-Aug-28 00:36 334 11.7
2014-Aug-28 00:31 332 11.7
2014-Aug-28 00:21 333 11.7
2014-Aug-28 00:16 332 11.7
2014-Aug-28 00:11 333 12.2
2014-Aug-28 00:06 333 12.2
2014-Aug-28 00:01 333 12.2
2014-Aug-27 23:56 333 12.2
2014-Aug-27 23:51 335 12.8
2014-Aug-27 23:46 333 12.8
2014-Aug-27 23:41 332 12.8
2014-Aug-27 23:31 333 13.3
2014-Aug-27 23:26 334 13.3
2014-Aug-27 23:21 333 13.3
2014-Aug-27 23:16 333 13.9
2014-Aug-27 23:11 333 13.9
2014-Aug-27 23:06 334 14.4
2014-Aug-27 23:01 333 14.4
2014-Aug-27 22:56 334 14.4
2014-Aug-27 22:51 333 15.0
2014-Aug-27 22:46 334 15.0
2014-Aug-27 22:41 331 15.0
2014-Aug-27 22:36 332 15.6
2014-Aug-27 22:31 333 15.6
2014-Aug-27 22:26 333 15.6
2014-Aug-27 22:21 334 16.1
2014-Aug-27 22:16 332 16.1
2014-Aug-27 22:11 333 16.7
2014-Aug-27 22:06 333 16.7
2014-Aug-27 22:01 334 17.2
2014-Aug-27 21:56 333 17.2
2014-Aug-27 21:51 333 17.2
2014-Aug-27 21:46 333 17.8
2014-Aug-27 21:41 332 17.8
2014-Aug-27 21:31 334 17.8
2014-Aug-27 21:26 333 18.3
2014-Aug-27 21:21 333 2 gusting 7 18.3
2014-Aug-27 21:16 333 1 gusting 6 18.3
2014-Aug-27 21:06 333 1 gusting 7 18.9
2014-Aug-27 21:01 333 2 gusting 6 18.9
2014-Aug-27 20:56 333 0 gusting 6 19.4
2014-Aug-27 20:51 332 2 gusting 6 19.4
2014-Aug-27 20:46 333 2 gusting 7 19.4
2014-Aug-27 20:41 334 2 gusting 7 19.4
2014-Aug-27 20:36 330 5 gusting 6 19.4
2014-Aug-27 20:31 317 3 gusting 6 20.0
2014-Aug-27 20:21 319 3 gusting 6 20.0
2014-Aug-27 20:16 318 1 gusting 5 20.6
2014-Aug-27 20:11 318 1 gusting 6 20.6
2014-Aug-27 20:01 319 5 gusting 7 21.1
2014-Aug-27 19:56 317 4 gusting 6 21.1
2014-Aug-27 19:46 318 0 gusting 6 21.1
2014-Aug-27 19:41 318 2 gusting 6 21.1
2014-Aug-27 19:36 319 0 gusting 4 21.7
2014-Aug-27 19:31 318 21.7
2014-Aug-27 19:26 319 21.7
2014-Aug-27 19:21 319 21.7
2014-Aug-27 19:11 318 22.8
2014-Aug-27 19:06 317 23.3
2014-Aug-27 19:01 318 23.9
2014-Aug-27 18:56 321 24.4
2014-Aug-27 18:51 319 25.0
2014-Aug-27 18:46 318 25.0
2014-Aug-27 18:41 320 1 gusting 6 25.0
2014-Aug-27 18:36 319 4 gusting 6 25.0
2014-Aug-27 18:31 318 3 gusting 6 25.0
2014-Aug-27 18:26 317 4 gusting 6 25.6
2014-Aug-27 18:21 319 1 gusting 4 25.6
2014-Aug-27 18:11 319 26.1
2014-Aug-27 18:06 319 26.7
2014-Aug-27 18:01 319 26.7